Simultaneous Nadir Overpasses (SNOs) Predictions

Prediction of SNOs between GOES-14 and NPP Satellite Orbit:

Table of predicted SNOs for the next 14.0 days since TLE Epoch: 6/29/2024
Index Date Time (GOES-14) GOES-14 Lat,Lon NPP Lat,Lon Distance(km) Time Diff (sec)
1 06/29/2024 20:52:13 0.14,-108.50 -0.65,-112.06 405.01 80
2 06/30/2024 20:36:10 0.13,-108.51 0.33,-107.53 111.10 80
3 07/02/2024 08:55:21 -0.17,-108.53 0.78,-112.82 488.86 80
4 07/03/2024 08:39:18 -0.15,-108.53 -0.21,-108.29 26.58 80
5 07/05/2024 20:39:53 0.18,-108.49 0.02,-109.08 68.28 80
6 07/06/2024 20:23:49 0.16,-108.49 1.02,-104.55 447.88 80
7 07/08/2024 08:43:00 -0.20,-108.52 0.08,-109.85 151.33 80
8 07/09/2024 08:26:57 -0.18,-108.51 -0.92,-105.32 364.59 80
9 07/10/2024 20:46:15 0.22,-108.48 -0.26,-110.64 245.91 80
10 07/11/2024 20:30:12 0.20,-108.48 0.75,-106.11 270.62 80
